Theta_e
353 352 350 348 346 348 349 349 348 349 349 347 346 346 342 340 339 340 341 343 343 344
352 353 352 350 348 349 349 348 348 349 346 344 344 345 342 341 341 344 344 344 346 344
357 355 355 351 348 349 349 348 347 346 347 346 344 344 343 342 343 343 344 345 346 344
358 359 356 354 352 351 349 349 347 346 346 345 344 345 343 343 344 344 345 346 346 346
358 358 356 352 352 351 350 350 349 348 347 346 346 345 344 343 346 345 345 346 344 345
355 354 353 352 351 350 350 350 349 349 347 346 346 347 347 347 346 347 346 345 343 342
351 352 351 351 350 350 350 349 348 348 348 347 348 348 348 348 347 347 346 344 343 343
350 350 349 348 349 349 348 348 348 347 347 347 348 350 347 348 347 345 341 341 340 343
348 348 347 347 346 346 346 346 346 346 347 347 351 344 343 348 346 343 339 336 335 343
347 346 346 347 346 345 345 345 346 347 347 346 347 341 339 345 345 341 339 336 334 338
348 347 347 347 346 346 346 347 347 347 347 347 348 338 336 338 344 339 338 337 335 335
350 349 350 347 346 347 349 348 348 349 348 348 347 334 332 335 341 340 337 338 337 335
350 349 349 350 349 350 351 351 352 349 349 343 345 332 327 333 340 339 338 339 338 333
353 350 350 350 349 350 351 348 346 345 344 345 342 339 326 323 336 338 338 341 341 341
Wind_Speed
11 9 9 7 5 7 7 9 8 10 8 7 7 6 5 4 4 5 5 7 5 4
11 9 8 8 8 6 8 7 9 10 9 7 7 7 6 4 5 5 6 6 5 6
10 10 8 6 8 8 8 8 9 8 8 8 8 8 7 6 7 7 6 5 6 7
10 10 9 9 9 9 7 8 9 9 10 9 9 8 8 7 7 8 8 7 8 10
10 9 9 9 8 7 8 7 9 9 8 9 9 8 9 9 8 9 9 10 8 10
9 8 8 8 7 7 6 6 7 7 8 8 8 9 9 9 9 8 8 7 6 7
9 9 7 6 7 7 6 6 5 6 7 7 6 6 6 7 7 6 6 5 5 6
8 6 6 6 6 6 6 6 7 6 5 6 5 5 6 6 6 6 5 3 3 4
7 7 7 6 6 6 6 5 5 5 6 6 5 8 10 7 5 5 6 5 4 3
7 8 7 7 7 7 7 6 6 6 5 5 6 9 10 11 6 7 7 6 5 4
8 8 7 7 7 6 5 7 6 6 7 6 5 9 10 8 6 5 6 6 7 6
9 8 8 9 8 6 7 7 7 7 9 7 6 10 11 7 6 6 6 6 6 6
9 10 9 8 9 7 6 8 6 6 6 12 8 7 6 6 4 5 4 5 7 11
9 9 8 7 5 6 7 5 5 5 5 6 5 8 11 0 4 4 4 5 5 6
Wind_Direction
185 195 199 182 169 191 193 195 187 194 189 188 184 201 174 185 207 224 224 230 210 203
193 189 191 185 185 190 196 190 189 188 185 188 185 185 189 211 227 217 227 225 226 224
188 190 192 168 184 195 195 184 180 184 182 195 202 202 196 221 231 224 235 233 229 225
188 194 194 191 202 198 186 181 175 181 194 199 199 196 197 212 220 223 236 238 230 236
183 190 187 187 190 181 186 178 179 184 187 191 198 189 199 210 218 223 233 241 227 237
184 181 191 180 180 173 175 175 173 171 178 191 197 198 204 209 212 216 227 236 232 244
182 182 180 170 170 169 175 177 180 178 184 193 198 204 209 214 223 232 231 237 250 261
174 163 158 161 158 169 165 181 175 175 196 207 203 206 201 212 221 223 220 225 278 278
152 155 163 169 167 169 171 176 174 190 192 199 219 221 212 200 200 205 196 201 241 255
154 162 172 172 169 176 175 171 187 199 204 223 221 218 215 210 198 189 192 187 190 206
158 170 168 172 182 173 170 183 183 188 197 200 220 231 232 220 207 197 207 203 187 190
160 165 174 180 182 177 174 182 185 179 187 197 220 220 232 193 195 192 203 212 202 193
167 178 178 178 187 189 185 207 203 200 206 172 180 194 239 214 185 190 215 213 213 209
181 186 182 180 179 190 192 175 196 233 195 166 160 141 151 302 292 229 219 215 217 219